Regional Weather Roundup
Issued by NWS

Home | Current Version | Previous Version | Graphics & Text | Print | Product List | Glossary On
Versions: 1 2 3 4 5 6 7 8 9 10 11 12 13 14 15 16 17 18 19 20 21 22 23 24 25 26 27 28 29 30 31 32 33 34 35 36 37 38 39 40 41 42 43 44 45 46 47 48 49 50
995
ASUS43 KMPX 232301
RWRMN
WEATHER ROUNDUP FOR MINNESOTA
NATIONAL WEATHER SERVICE TWIN CITIES/CHANHASSEN MN
600 PM CDT MON MAY 23 2016


NOTE: "FAIR" INDICATES FEW OR NO CLOUDS BELOW 12,000 FEET WITH NO
SIGNIFICANT WEATHER AND/OR OBSTRUCTIONS TO VISIBILITY. N/A MEANS
CURRENT SKY AND/OR WEATHER CONDITIONS ARE NOT AVAILABLE.

MNZ060>063-068>070-240000-
   Twin Cities Metro

CITY           SKY/WX    TMP DP  RH WIND       PRES   REMARKS
TWIN CITIES    CLOUDY    75  60  59 S17G24    29.76F
ST PAUL        CLOUDY    74  60  61 S13       29.76F
CRYSTAL        CLOUDY    75  59  57 S10       29.73F
EDEN PRAIRIE   CLOUDY    76  60  57 S15G24    29.74F
SOUTH ST PAUL  CLOUDY    74  59  58 S10G16    29.76F
LAKE ELMO      FAIR      73  61  64 S14       29.77F
$$
MNZ001>005-007-008-013>017-022>024-027-028-240000-
   Northwest Minnesota

CITY           SKY/WX    TMP DP  RH WIND       PRES   REMARKS
BEMIDJI        MOSUNNY   75  50  41 W7        29.71S
HALLOCK        SUNNY     81  41  24 W8        29.64R
ROSEAU         SUNNY     79  48  34 SW10      29.67R
WARROAD        MOSUNNY   75  46  35 SW7       29.67R
THIEF RVR FALL CLOUDY    77  48  36 S6        29.70S
CROOKSTON      CLOUDY    81  43  26 SW3       29.68S
FOSSTON        CLOUDY    77  48  36 SW6       29.71S
DETROIT LAKES  CLOUDY    77  45  31 NW5       29.71S
MOORHEAD       MOSUNNY   81  43  26 CALM      29.67S
PARK RAPIDS    MOSUNNY   78  54  43 S8        29.70F
MAHNOMEN       CLOUDY    76  52  43 CALM      29.70S
$$
MNZ006-009>011-018-025>026-240000-
   North Central Minnesota

CITY           SKY/WX    TMP DP  RH WIND       PRES   REMARKS
BAUDETTE       MOSUNNY   78  44  29 W12       29.67R
FLAG ISLAND    MOSUNNY   72  54  53 SE8       29.64S
INTL FALLS     CLOUDY    75  53  46 W6        29.67R
WASKISH        SUNNY     75  55  50 SW8       29.69S
BIG FORK       PTSUNNY   77  55  47 SW9       29.69F
LONGVILLE      PTSUNNY   73  55  53 SW5       29.71F
GRAND RAPIDS     N/A    N/A N/A N/A MISG        N/A
CRANE LAKE     HVY RAIN  61  57  88 CALM      29.72R
ORR            TSTM      64  59  82 CALM      29.69R
COOK           PTSUNNY   73  57  56 W16G23    29.72R
WALKER         CLOUDY    74  55  52 S3        29.70S
$$
MNZ012-019>021-037-240000-
   Northeast Minnesota

CITY           SKY/WX    TMP DP  RH WIND       PRES   REMARKS
DULUTH         CLOUDY    73  56  54 W14       29.74F
ELY            CLOUDY    73  55  53 SW10G22   29.71F
HIBBING        MOSUNNY   74  56  53 VRB5G17   29.70F
EVELETH        MOSUNNY   73  54  49 S12G18    29.73S
DULUTH HARBOR  CLOUDY    75  61  60 W8        29.73S
TWO HARBORS      N/A     77  63  61 W6        29.72S
SILVER BAY     CLOUDY    75  55  50 SW12G20   29.71S
GRAND MARAIS     N/A     53  42  66 CALM      29.70F
G MARAIS ARPRT CLOUDY    68  52  56 CALM      29.75F
$$
MNZ029>031-032-039>041-046>048-054>057-064-240000-
   West Central Minnesota

CITY           SKY/WX    TMP DP  RH WIND       PRES   REMARKS
FERGUS FALLS   CLOUDY    79  50  36 S7        29.65S
WHEATON        CLOUDY    79  57  47 SW6       29.70S
MORRIS         CLOUDY    77  55  47 W7        29.69S
ALEXANDRIA     LGT RAIN  76  53  44 CALM      29.73S
ELBOW LAKE     FAIR      78  53  41 SW3       29.69F
WADENA         PTSUNNY   75  55  50 S6        29.71S
GLENWOOD       CLOUDY    75  57  53 S8        29.73S
APPLETON       CLOUDY    79  52  38 S3        29.69S
BENSON         CLOUDY    77  55  47 SW6       29.70S
ORTONVILLE     PTSUNNY   77  54  44 CALM      29.70S
MADISON        CLOUDY    75  57  53 W7        29.70S
WILLMAR        FAIR      72  63  73 CALM      29.73F
$$
MNZ033>034-036-042>043-049>051-058-059-240000-
   Central Minnesota

CITY           SKY/WX    TMP DP  RH WIND       PRES   REMARKS
ST CLOUD       LGT RAIN  68  64  87 SE5       29.74R
PAYNESVILLE    CLOUDY    70  64  80 SE3       29.74S
AITKIN         CLOUDY    75  57  53 S10G16    29.72S
PINE RIVER     MOSUNNY   79  55  44 S8        29.74F
BRAINERD       PTSUNNY   72  60  66 S12       29.73F
STAPLES        PTSUNNY   75  52  43 S7        29.71F
LONG PRAIRIE   LGT RAIN  66  61  82 SE6       29.74S
LITTLE FALLS   RAIN      66  63  88 CALM      29.74S
LITCHFIELD     TSTM      70  66  88 NW9       29.73F
BUFFALO        CLOUDY    70  64  80 N3        29.73F
MAPLE LAKE     CLOUDY    69  65  85 N5        29.73F
HUTCHINSON     CLOUDY    74  65  74 NW23G32   29.71F THUNDER
$$
MNZ037-044-045-052-053-240000-
   East Central Minnesota

CITY           SKY/WX    TMP DP  RH WIND       PRES   REMARKS
PRINCETON      LGT RAIN  73  64  73 CALM      29.74S
MORA           LGT RAIN  73  59  60 CALM      29.75S
CAMBRIDGE        N/A     72  63  73 S6        29.72F
RUSH CITY      CLOUDY    69  65  86 S3        29.74F
MOOSE LAKE     CLOUDY    73  57  56 SW6       29.73R
HINCKLEY       MOCLDY    73  61  64 NW3       29.74R
CLOQUET        CLOUDY    72  55  56 SW6       29.74F
MCGREGOR       CLOUDY    72  59  64 SW8       29.74S
$$
MNZ071>073-080-081-089-090-097-098-240000-
   Southwest Minnesota

CITY           SKY/WX    TMP DP  RH WIND       PRES   REMARKS
MONTEVIDEO     CLOUDY    79  61  53 W6        29.71F
GRANITE FALLS  CLOUDY    76  64  65 S9        29.72F
CANBY          CLOUDY    78  63  59 SW3       29.72S
MARSHALL       CLOUDY    75  61  61 SW9       29.72F
REDWOOD FALLS  CLOUDY    74  63  68 VRB5      29.71S
OLIVIA         CLOUDY    63  55  77 N6        29.71F
PIPESTONE      CLOUDY    73  63  68 W5        29.74S
WINDOM         CLOUDY    70  64  83 CALM      29.75S
WORTHINGTON    TSTM      68  62  81 S12       29.76S
JACKSON        CLOUDY    72  61  68 S14       29.77S
SLAYTON        CLOUDY    72  62  70 S7        29.75S
$$
MNZ065>067-074>077-082>085-091>093-240000-
   South Central Minnesota

CITY           SKY/WX    TMP DP  RH WIND       PRES   REMARKS
MANKATO        CLOUDY    73  59  60 S16G24    29.76S
NEW ULM        CLOUDY    73  61  64 S20G25    29.73R
ST JAMES       CLOUDY    68  57  68 S18       29.76S
FAIRMONT       PTSUNNY   70  63  78 S18       29.78R
GLENCOE        CLOUDY    77  66  69 S9G22     29.71F
OWATONNA       CLOUDY    70  57  64 S9        29.79F
WASECA         CLOUDY    70  59  68 S17       29.79F
ALBERT LEA     LGT RAIN  66  61  82 S8G21     29.78F
$$
MNZ078>079-086>088-094>096-240000-
   Southeast Minnesota

CITY           SKY/WX    TMP DP  RH WIND       PRES   REMARKS
ROCHESTER      TSTM      65  61  87 S18G32    29.85R FOG
RED WING       CLOUDY    75  59  57 SW13G20   29.78R
STANTON        CLOUDY    73  59  63 SW16G23   29.77S
DODGE CENTER   LGT RAIN  64  61  88 SW20G29   29.81F
WINONA         CLOUDY    81  52  36 S10       29.79R
AUSTIN         TSTM      64  61  88 SE10      29.81F
PRESTON        CLOUDY    68  56  65 SW15G26   29.87R
$$
ABBREVIATIONS USED IN REMARKS
   TC - TEMPERATURES IN CELSIUS
  WCI - WIND CHILL INDEX
   HX - HEAT INDEX
  VSB - VISIBILITY
$$




USA.gov is the U.S. government's official web portal to all federal, state and local government web resources and services.